Location: Killam
(52.7910°N, 111.8608°W)
Time: 09:12:55
(UTC+00:00)

FENGYUN 1C DEB - Visible Passes

Search period start: 26 May 2024 00:00
Search period end: 05 June 2024 00:00
Orbit: 795 x 992 km, 98.4° (Epoch: 25 May)

Date Brightness Start Highest point End Pass type
(mag) Time Alt. Az. Time Alt. Az. Time Alt. Az.
26 May ? 05:53:41 10° NNE 05:58:57 71° ESE 06:03:10 17° S visible
26 May ? 07:36:04 10° N 07:40:11 24° WNW 07:44:21 10° WSW visible
27 May ? 05:54:28 10° NNE 05:59:45 73° ESE 06:04:04 16° S visible
27 May ? 07:36:52 10° N 07:40:58 24° WNW 07:45:08 10° WSW visible
28 May ? 05:55:15 10° NNE 06:00:33 74° ESE 06:04:58 16° S visible
28 May ? 07:37:41 10° N 07:41:45 23° WNW 07:45:54 10° WSW visible
29 May ? 05:56:02 10° NNE 06:01:20 75° ESE 06:05:51 15° S visible
29 May ? 07:38:28 10° N 07:42:32 23° NW 07:46:41 10° WSW visible
30 May ? 05:56:48 10° NNE 06:02:07 77° ESE 06:06:45 15° S visible
30 May ? 07:39:15 10° N 07:43:18 23° NW 07:47:26 10° WSW visible
31 May ? 05:57:34 10° NNE 06:02:54 78° ESE 06:07:37 15° S visible
31 May ? 07:40:03 10° N 07:44:04 23° NW 07:48:12 10° WSW visible
01 Jun ? 05:58:20 10° NNE 06:03:41 79° ESE 06:08:30 14° SSW visible
01 Jun ? 07:40:48 10° N 07:44:50 22° NW 07:48:57 10° WSW visible
02 Jun ? 05:59:05 10° NNE 06:04:27 80° ESE 06:09:21 14° SSW visible
02 Jun ? 07:41:35 10° N 07:45:36 22° NW 07:49:42 10° WSW visible
03 Jun ? 05:59:50 10° NNE 06:05:13 82° ESE 06:10:13 13° SSW visible
03 Jun ? 07:42:21 10° N 07:46:21 22° NW 07:50:27 10° WSW visible
04 Jun ? 06:00:34 10° NNE 06:05:59 83° ESE 06:11:05 13° SSW visible
04 Jun ? 07:43:06 10° N 07:47:05 22° NW 07:51:11 10° WSW visible
